TimeCDT,TemperatureF,Dew PointF,Humidity,Sea Level PressureIn,VisibilityMPH,Wind Direction,Wind SpeedMPH,Gust SpeedMPH,PrecipitationIn,Events,Conditions,WindDirDegrees,DateUTC
12:15 AM,23.0,14.0,68,29.90,10.0,South,10.4,16.1,N/A,,Scattered Clouds,180,2013-03-18 05:15:00
12:35 AM,23.0,14.0,68,29.90,10.0,South,10.4,-,N/A,,Mostly Cloudy,170,2013-03-18 05:35:00
12:55 AM,23.0,14.0,68,29.89,10.0,South,10.4,16.1,N/A,,Overcast,170,2013-03-18 05:55:00
1:15 AM,23.0,14.0,68,29.88,10.0,South,11.5,17.3,N/A,,Overcast,170,2013-03-18 06:15:00
1:55 AM,23.0,14.0,68,29.83,10.0,SSE,11.5,19.6,N/A,,Overcast,160,2013-03-18 06:55:00
2:15 AM,23.0,14.0,68,29.81,10.0,SSE,10.4,20.7,N/A,,Overcast,160,2013-03-18 07:15:00
2:35 AM,23.0,14.0,68,29.80,10.0,SSE,12.7,18.4,N/A,,Overcast,160,2013-03-18 07:35:00
2:55 AM,23.0,14.0,68,29.78,10.0,SSE,12.7,21.9,N/A,,Overcast,160,2013-03-18 07:55:00
3:15 AM,23.0,15.8,74,29.78,10.0,South,10.4,19.6,N/A,,Overcast,180,2013-03-18 08:15:00
3:35 AM,23.0,17.6,80,29.77,10.0,South,11.5,19.6,N/A,,Overcast,180,2013-03-18 08:35:00
3:55 AM,23.0,17.6,80,29.73,10.0,SSE,19.6,27.6,N/A,,Overcast,160,2013-03-18 08:55:00
4:15 AM,23.0,17.6,80,29.73,10.0,South,13.8,21.9,N/A,,Overcast,170,2013-03-18 09:15:00
4:35 AM,23.0,17.6,80,29.74,10.0,South,12.7,18.4,N/A,,Overcast,180,2013-03-18 09:35:00
4:55 AM,23.0,17.6,80,29.73,10.0,South,13.8,21.9,N/A,,Overcast,180,2013-03-18 09:55:00
5:15 AM,23.0,17.6,80,29.71,10.0,South,12.7,-,N/A,Snow,Light Snow,170,2013-03-18 10:15:00
5:35 AM,23.0,19.4,86,29.70,2.0,South,13.8,19.6,N/A,Snow,Light Snow,170,2013-03-18 10:35:00
5:55 AM,23.0,19.4,86,29.70,1.8,South,9.2,17.3,N/A,Snow,Light Snow,180,2013-03-18 10:55:00
6:15 AM,23.0,19.4,86,29.69,1.0,South,11.5,18.4,N/A,Snow,Snow,180,2013-03-18 11:15:00
6:35 AM,23.0,21.2,93,29.68,1.2,South,9.2,16.1,N/A,Snow,Light Snow,170,2013-03-18 11:35:00
6:55 AM,23.0,19.4,86,29.68,1.8,South,11.5,-,N/A,Snow,Light Snow,170,2013-03-18 11:55:00
7:15 AM,23.0,19.4,86,29.67,1.8,South,12.7,-,N/A,Snow,Light Snow,180,2013-03-18 12:15:00
7:35 AM,23.0,19.4,86,29.65,1.8,South,12.7,17.3,N/A,Snow,Light Snow,170,2013-03-18 12:35:00
7:55 AM,23.0,19.4,86,29.64,4.0,South,13.8,19.6,N/A,Snow,Light Snow,170,2013-03-18 12:55:00
8:15 AM,23.0,19.4,86,29.63,7.0,South,9.2,19.6,N/A,Snow,Light Snow,170,2013-03-18 13:15:00
8:35 AM,23.0,19.4,86,29.62,1.8,South,11.5,18.4,N/A,Snow,Light Snow,170,2013-03-18 13:35:00
8:55 AM,24.8,21.2,86,29.61,0.8,South,12.7,18.4,N/A,Snow,Light Snow,170,2013-03-18 13:55:00
9:15 AM,23.0,21.2,93,29.61,0.5,South,12.7,17.3,N/A,Snow,Snow,180,2013-03-18 14:15:00
9:35 AM,24.8,21.2,86,29.61,0.5,South,12.7,-,N/A,Snow,Snow,180,2013-03-18 14:35:00
9:55 AM,24.8,21.2,86,29.60,0.8,South,16.1,21.9,N/A,Snow,Light Snow,170,2013-03-18 14:55:00
10:15 AM,24.8,21.2,86,29.59,0.8,South,12.7,18.4,N/A,Snow,Light Snow,180,2013-03-18 15:15:00
10:35 AM,26.6,23.0,86,29.58,0.8,South,12.7,-,N/A,Snow,Light Snow,170,2013-03-18 15:35:00
10:55 AM,26.6,23.0,86,29.58,0.8,South,11.5,16.1,N/A,Snow,Light Snow,180,2013-03-18 15:55:00
11:15 AM,26.6,23.0,86,29.57,0.8,South,12.7,17.3,N/A,Snow,Light Snow,180,2013-03-18 16:15:00
11:35 AM,26.6,23.0,86,29.56,0.8,South,12.7,-,N/A,Snow,Light Snow,180,2013-03-18 16:35:00
11:55 AM,26.6,23.0,86,29.56,1.2,SSW,10.4,-,N/A,Snow,Light Snow,200,2013-03-18 16:55:00
12:15 PM,28.4,23.0,80,29.56,1.8,South,12.7,-,N/A,Snow,Light Snow,190,2013-03-18 17:15:00
12:35 PM,28.4,23.0,80,29.56,7.0,SSW,9.2,-,N/A,,Overcast,210,2013-03-18 17:35:00
12:55 PM,28.4,23.0,80,29.55,7.0,SW,9.2,-,N/A,,Overcast,230,2013-03-18 17:55:00
1:15 PM,28.4,23.0,80,29.56,3.0,West,13.8,19.6,N/A,Snow,Light Snow,260,2013-03-18 18:15:00
1:35 PM,23.0,21.2,93,29.57,2.5,WNW,17.3,21.9,N/A,,Overcast,290,2013-03-18 18:35:00
1:55 PM,23.0,17.6,80,29.56,10.0,West,17.3,20.7,N/A,,Overcast,270,2013-03-18 18:55:00
2:15 PM,23.0,17.6,80,29.56,10.0,West,18.4,24.2,N/A,,Overcast,280,2013-03-18 19:15:00
2:35 PM,23.0,15.8,74,29.56,10.0,West,18.4,24.2,N/A,,Overcast,280,2013-03-18 19:35:00
2:55 PM,23.0,15.8,74,29.56,10.0,West,19.6,-,N/A,,Overcast,270,2013-03-18 19:55:00
3:15 PM,23.0,14.0,68,29.56,5.0,West,13.8,24.2,N/A,,Haze,280,2013-03-18 20:15:00
3:35 PM,21.2,15.8,80,29.56,3.0,West,17.3,21.9,N/A,Snow,Light Snow,280,2013-03-18 20:35:00
3:55 PM,21.2,14.0,74,29.56,3.0,West,16.1,20.7,N/A,Snow,Light Snow,260,2013-03-18 20:55:00
4:15 PM,21.2,12.2,68,29.57,10.0,WNW,16.1,23.0,N/A,,Overcast,290,2013-03-18 21:15:00
4:35 PM,19.4,12.2,74,29.58,10.0,West,16.1,23.0,N/A,,Overcast,280,2013-03-18 21:35:00
4:55 PM,19.4,12.2,74,29.58,7.0,West,13.8,23.0,N/A,Snow,Light Snow,280,2013-03-18 21:55:00
5:15 PM,19.4,10.4,68,29.59,10.0,West,16.1,20.7,N/A,Snow,Light Snow,280,2013-03-18 22:15:00
5:35 PM,19.4,12.2,74,29.59,1.5,West,10.4,-,N/A,Snow,Light Snow,280,2013-03-18 22:35:00
5:55 PM,19.4,12.2,74,29.59,7.0,West,13.8,19.6,N/A,Snow,Light Snow,280,2013-03-18 22:55:00
6:15 PM,19.4,12.2,74,29.59,7.0,West,8.1,-,N/A,Snow,Light Snow,280,2013-03-18 23:15:00
6:35 PM,19.4,12.2,74,29.60,5.0,WNW,11.5,-,N/A,Snow,Light Snow,290,2013-03-18 23:35:00
6:55 PM,19.4,12.2,74,29.60,5.0,West,16.1,-,N/A,Snow,Light Snow,270,2013-03-18 23:55:00
7:15 PM,19.4,12.2,74,29.61,4.0,West,10.4,17.3,N/A,Snow,Light Snow,280,2013-03-19 00:15:00
7:35 PM,19.4,14.0,80,29.61,4.0,West,10.4,-,N/A,Snow,Light Snow,280,2013-03-19 00:35:00
7:55 PM,19.4,14.0,80,29.61,5.0,West,10.4,-,N/A,Snow,Light Snow,270,2013-03-19 00:55:00
8:15 PM,19.4,14.0,80,29.61,4.0,West,10.4,-,N/A,Snow,Light Snow,270,2013-03-19 01:15:00
8:35 PM,19.4,14.0,80,29.62,5.0,West,12.7,-,N/A,Snow,Light Snow,270,2013-03-19 01:35:00
8:55 PM,19.4,14.0,80,29.62,7.0,WNW,10.4,-,N/A,Snow,Light Snow,290,2013-03-19 01:55:00
9:15 PM,19.4,12.2,74,29.63,7.0,WNW,13.8,20.7,N/A,Snow,Light Snow,300,2013-03-19 02:15:00
9:35 PM,19.4,12.2,74,29.63,10.0,WNW,18.4,23.0,N/A,Snow,Light Snow,300,2013-03-19 02:35:00
9:55 PM,17.6,12.2,79,29.64,10.0,NW,20.7,25.3,N/A,,Overcast,310,2013-03-19 02:55:00
10:15 PM,17.6,10.4,73,29.66,10.0,NW,15.0,25.3,N/A,,Overcast,310,2013-03-19 03:15:00
10:35 PM,17.6,8.6,68,29.67,10.0,WNW,17.3,27.6,N/A,,Overcast,300,2013-03-19 03:35:00
10:55 PM,15.8,8.6,73,29.68,10.0,NW,17.3,24.2,N/A,,Overcast,310,2013-03-19 03:55:00
11:15 PM,15.8,8.6,73,29.68,10.0,WNW,18.4,26.5,N/A,,Overcast,300,2013-03-19 04:15:00
11:35 PM,14.0,8.6,79,29.68,10.0,WNW,15.0,24.2,N/A,,Overcast,300,2013-03-19 04:35:00
11:55 PM,14.0,8.6,79,29.69,10.0,NW,16.1,20.7,N/A,,Overcast,310,2013-03-19 04:55:00